Date String (YYYY-MM-DD hh:mm:ss) UTC,Instrument flags,Ambient pressure (hPa),Sample flow (lpm),Bypass flow (lpm),Sample temperature (°C),Ambient temperature (°C),ASC tube jacket temperature (°C),LED temperature (°C),Box temperature (°C),Sample RH (%),Span deviation,Mass concentration (μg/m³),Mass concentration (μg/m³),Mass concentration (μg/m³)
DateTimeUTC,F1_M11,P_M11,Q1_M11,Q2_M11,T1_M11,T2_M11,T3_M11,T4_M11,T5_M11,U1_M11,ZSPAN_M11,X0_M11,X2_M11,X1_M11
2022-10-09 22:00:00,,0830.5,5.02,0.00,30.0,26.1,00.0,38.6,31.7,13.6,0000.0,0011.45,0005.68,0005.12
2022-10-09 22:01:00,,0830.5,5.00,0.00,29.9,26.4,00.0,38.6,31.5,13.8,0000.0,0011.46,0005.67,0005.12
2022-10-09 22:02:00,,0830.5,5.00,0.00,29.8,26.8,00.0,38.5,31.4,14.0,0000.0,0011.36,0005.70,0005.13
2022-10-09 22:03:00,,0830.5,4.99,0.00,29.8,27.2,00.0,38.5,31.5,13.8,0000.0,0011.04,0005.74,0005.13
2022-10-09 22:04:00,,0830.5,4.99,0.00,29.7,27.5,00.0,38.5,31.5,13.9,0000.0,0010.22,0005.71,0005.12
2022-10-09 22:05:00,,0830.5,5.02,0.00,29.7,27.8,00.0,38.5,31.5,14.2,0000.3,0010.15,0005.72,0005.11
2022-10-09 22:06:00,,0830.5,5.00,0.00,29.7,28.0,00.0,38.5,31.6,14.0,0000.1,0010.01,0005.73,0005.12
2022-10-09 22:07:00,,0830.5,5.00,0.00,29.8,28.3,00.0,38.5,31.6,13.8,0000.0,0011.13,0005.70,0005.13
2022-10-09 22:08:00,,0830.5,5.00,0.00,29.8,28.4,00.0,38.5,31.7,13.7,0000.0,0010.99,0005.67,0005.12
2022-10-09 22:09:00,,0830.5,5.00,0.00,29.8,28.6,00.0,38.5,31.7,13.8,0000.0,0010.45,0005.61,0005.10
2022-10-09 22:10:00,,0830.5,4.99,0.00,29.8,28.7,00.0,38.5,31.8,13.9,0000.0,0010.42,0005.60,0005.08
2022-10-09 22:11:00,,0830.4,5.01,0.00,29.9,28.8,00.0,38.5,31.8,14.0,0000.0,0011.19,0005.61,0005.06
2022-10-09 22:12:00,,0830.4,4.99,0.00,29.9,28.9,00.0,38.5,31.9,14.0,0000.0,0011.96,0005.61,0005.04
2022-10-09 22:13:00,,0830.4,5.00,0.00,29.9,29.0,00.0,38.6,31.9,13.7,0000.0,0012.01,0005.58,0005.02
2022-10-09 22:14:00,,0830.4,5.01,0.00,30.0,29.1,00.0,38.6,31.9,13.6,0000.0,0012.54,0005.56,0005.01
2022-10-09 22:15:00,,0830.5,5.00,0.00,30.0,29.1,00.0,38.6,32.0,13.6,-000.2,0012.76,0005.57,0005.02
2022-10-09 22:16:00,,0830.5,4.99,0.00,30.0,29.2,00.0,38.6,32.0,13.4,0000.0,0012.65,0005.54,0005.01
2022-10-09 22:17:00,,0830.4,5.01,0.00,30.1,29.2,00.0,38.7,32.0,13.5,0000.0,0012.68,0005.53,0004.98
2022-10-09 22:18:00,,0830.5,4.99,0.00,30.1,28.0,00.0,38.7,31.8,13.3,-000.1,0011.55,0005.51,0004.96
2022-10-09 22:19:00,,0830.5,4.99,0.00,30.0,27.0,00.0,38.6,31.7,13.4,0000.2,0011.51,0005.52,0004.97
2022-10-09 22:20:00,,0830.4,5.00,0.00,29.9,27.0,00.0,38.6,31.6,13.3,0000.0,0011.66,0005.58,0004.99
2022-10-09 22:21:00,,0830.4,5.00,0.00,29.8,27.2,00.0,38.6,31.5,13.3,0000.0,0011.84,0005.61,0005.01
2022-10-09 22:22:00,,0830.4,5.01,0.00,29.8,27.5,00.0,38.6,31.6,13.6,0000.0,0011.79,0005.63,0005.03
2022-10-09 22:23:00,,0830.4,5.00,0.00,29.8,27.8,00.0,38.6,31.6,13.5,0000.0,0011.48,0005.65,0005.04
2022-10-09 22:24:00,,0830.4,4.99,0.00,29.8,28.1,00.0,38.6,31.7,13.4,0000.0,0011.39,0005.65,0005.04
2022-10-09 22:25:00,,0830.4,5.00,0.00,29.8,28.3,00.0,38.6,31.7,13.3,0000.0,0010.64,0005.63,0005.03
2022-10-09 22:26:00,,0830.4,4.99,0.00,29.9,28.5,00.0,38.6,31.7,13.3,0000.0,0010.31,0005.59,0005.02
2022-10-09 22:27:00,,0830.4,5.02,0.00,29.9,28.7,00.0,38.6,31.8,13.2,0000.0,0010.80,0005.61,0005.02
2022-10-09 22:28:00,,0830.4,4.99,0.00,29.9,28.8,00.0,38.6,31.9,13.4,0000.0,0010.90,0005.63,0005.02
2022-10-09 22:29:00,,0830.4,5.00,0.00,30.0,28.9,00.0,38.6,31.9,13.3,0000.0,0010.92,0005.65,0005.02
2022-10-09 22:30:00,,0830.4,5.00,0.00,30.0,29.0,00.0,38.6,31.9,13.2,0000.0,0010.71,0005.61,0005.00
2022-10-09 22:31:00,,0830.4,5.01,0.00,30.0,28.4,00.0,38.6,31.9,13.2,0000.0,0010.61,0005.56,0004.96
2022-10-09 22:32:00,,0830.4,5.00,0.00,29.9,27.0,00.0,38.6,31.6,13.0,0000.0,0010.55,0005.52,0004.94
2022-10-09 22:33:00,,0830.4,5.00,0.00,29.9,26.8,00.0,38.6,31.6,13.3,0000.4,0010.45,0005.47,0004.92
2022-10-09 22:34:00,,0830.4,5.01,0.00,29.8,27.0,00.0,38.5,31.5,13.2,0000.3,0010.00,0005.44,0004.90
2022-10-09 22:35:00,,0830.4,5.01,0.00,29.8,27.4,00.0,38.5,31.5,13.3,0000.0,0010.01,0005.39,0004.90
2022-10-09 22:36:00,,0830.4,5.01,0.00,29.8,27.7,00.0,38.5,31.5,13.3,0000.0,0010.31,0005.38,0004.89
2022-10-09 22:37:00,,0830.4,4.98,0.00,29.8,28.0,00.0,38.5,31.6,13.3,0000.0,0010.68,0005.39,0004.88
2022-10-09 22:38:00,,0830.4,5.01,0.00,29.8,28.2,00.0,38.5,31.7,13.3,-000.0,0010.40,0005.38,0004.88
2022-10-09 22:39:00,,0830.4,4.99,0.00,29.8,28.4,00.0,38.5,31.7,13.4,-000.1,0010.41,0005.37,0004.87
2022-10-09 22:40:00,,0830.4,5.01,0.00,29.8,28.6,00.0,38.5,31.7,13.2,0000.0,0010.29,0005.36,0004.87
2022-10-09 22:41:00,,0830.4,4.99,0.00,29.8,28.7,00.0,38.5,31.8,13.1,0000.0,0010.38,0005.39,0004.89
2022-10-09 22:42:00,,0830.4,4.99,0.00,29.9,28.8,00.0,38.5,31.8,13.1,0000.0,0010.99,0005.43,0004.91
2022-10-09 22:43:00,,0830.4,5.01,0.00,29.9,28.9,00.0,38.6,31.9,13.4,0000.0,0010.69,0005.41,0004.91
2022-10-09 22:44:00,,0830.4,4.99,0.00,29.9,29.0,00.0,38.6,31.9,13.1,0000.0,0010.34,0005.41,0004.91
2022-10-09 22:45:00,,0830.4,5.00,0.00,30.0,29.1,00.0,38.6,32.0,12.9,0000.0,0010.82,0005.42,0004.92
2022-10-09 22:46:00,,0830.4,5.01,0.00,30.0,29.0,00.0,38.6,32.0,12.8,0000.0,0010.78,0005.48,0004.92
2022-10-09 22:47:00,,0830.4,5.00,0.00,30.0,27.7,00.0,38.6,31.8,12.9,0000.0,0010.98,0005.46,0004.92
2022-10-09 22:48:00,,0830.4,5.00,0.00,29.9,27.0,00.0,38.6,31.7,12.9,0000.0,0010.97,0005.48,0004.94
2022-10-09 22:49:00,,0830.4,4.99,0.00,29.9,27.0,00.0,38.6,31.6,12.8,0000.0,0010.75,0005.48,0004.95
2022-10-09 22:50:00,,0830.4,5.00,0.00,29.8,27.3,00.0,38.5,31.6,13.0,0000.0,0010.63,0005.45,0004.95
2022-10-09 22:51:00,,0830.4,5.00,0.00,29.8,27.6,00.0,38.5,31.6,13.0,0000.0,0010.62,0005.44,0004.96
2022-10-09 22:52:00,,0830.4,5.01,0.00,29.8,27.9,00.0,38.5,31.6,13.2,0000.0,0011.31,0005.43,0004.95
2022-10-09 22:53:00,,0830.4,4.99,0.00,29.8,28.1,00.0,38.5,31.7,13.1,0000.0,0011.04,0005.38,0004.94
2022-10-09 22:54:00,,0830.4,5.01,0.00,29.8,28.3,00.0,38.5,31.7,13.2,0000.0,0012.67,0005.38,0004.93
2022-10-09 22:55:00,,0830.4,4.99,0.00,29.8,28.5,00.0,38.5,31.7,13.4,0000.0,0013.17,0005.40,0004.91
2022-10-09 22:56:00,,0830.4,5.01,0.00,29.9,28.7,00.0,38.5,31.7,13.1,0000.0,0012.66,0005.41,0004.91
2022-10-09 22:57:00,,0830.4,4.99,0.00,29.9,28.8,00.0,38.6,31.8,12.8,0000.0,0012.94,0005.39,0004.91
2022-10-09 22:58:00,,0830.4,5.00,0.00,29.9,28.9,00.0,38.6,31.9,12.9,0000.0,0013.32,0005.38,0004.90
2022-10-09 22:59:00,,0830.4,5.00,0.00,29.9,29.0,00.0,38.6,31.9,12.9,0000.0,0012.85,0005.40,0004.89
